COSMOS 1130

Satellite information

Favourite Embed

Satellite Type and Status

PAYLOADIN ORBIT

Key statistics

Satellite COSMOS 1130 at a glance.

Uptime

16882

Days in orbit

Revolutions

≈ 12.6

Per day

Orbit

LEO

Low Earth Orbit

Inclination

74.0

Latest

Satellite identification and parameters

Extended collection of information and parameters for COSMOS 1130.

Object identification

Identified? True

Debris? False

Object name: COSMOS 1130

International designator: 1979-084A

Object number (NORAD): 11538

Object ID (CCSDS): 11538

Country: COMMONWEALTH OF INDEPENDENT STATES (CIS)

Current information (Y/N): Y

RCS size: MEDIUM

Orbital parameters

Period: 114.625 minutes

Inclination: 74.0254 deg

SMA: 7816.526 km

Apoapsis: 1479.552 km

Periapsis: 1397.23 km

RAAN: 309.2085 deg

Eccentricy: 0.00526587

Argument of periapsis: 8.0983 deg

Mean anomaly: 103.7216 deg

Mean motion: 12.56267468 rev/day

Mean motion (dot): 0.0 rev/day2

B* drag term: 0.000094993136 1/REarth

Two-line elements (TLE)

Creation date: Dec. 14, 2025, 3:07 a.m.

Reference frame: TEME

Reference center: EARTH

Epoch: Dec. 13, 2025, 3:07 p.m. UTC

TLE line 0: 0 COSMOS 1130

TLE line 1: 1 11538U 79084A 25347.63003541 .00000000 00000-0 94993-4 0 9997

TLE line 2: 2 11538 74.0254 309.2085 0052659 8.0983 103.7216 12.56267468119518

Live tracking on map

Real-time ground track for satellite COSMOS 1130.

In-orbit conjunctions

A list of the most updated potential collisions computed for object COSMOS 1130.

Target Orbit TCA Probability of collision Miss distance Type
DELTA 1 DEB SSO 2024-11-13 14:11:24 0.0002552777 221.0 (m) DEBRIS

Associated space launch

Biological research satellite carrying live organisms

COSMOS 1130 was lifted into orbit during the mission ‘Soyuz U | Bion 5’, on board a Soyuz U space rocket.

The launch took place on Sept. 25, 1979, 3:30 p.m. from 41/1.

For more information about the launch, click the button.

Launch to space Soyuz U | Bion 5
Soyuz U | Bion 5

Agency: N/A

Status: Launch Successful

Launch date: Sept. 25, 1979, 3:30 p.m. UTC

Rocket: Soyuz U

Launch pad: 41/1

Location: Plesetsk Cosmodrome, Russian Federation

...

Latest news about this satellite

There are no fresh news available about this satellite. Check back as we update our databases every day.


Newsletter sign-up

Weekly statistics, charts and insights to help you stay on top of the space industry.